User: anonymous   Login
Location: *
(50.5492°N, 7.7469°E)
Time: 14:30:45
(UTC+00:00)
Language:

In-Cosmos 22 Rocket - Orbit

View from above orbital plane
View from above orbital plane
View from above satellite
View from above satellite

Ground track
Ground track

The orbit data is extracted from the following two-line orbital elements,

1 12646U 81075B   19348.17694200 -.00000003  00000-0 -74756-5 0  9993
2 12646  81.2268  95.6041 0066639 271.6941 132.7498 14.15889612980593
Epoch (UTC): 14 December 2019 04:14:47
Eccentricity: 0.0066639
inclination: 81.2268°
perigee height: 791 km
apogee height: 887 km
right ascension of ascending node: 95.6041°
argument of perigee: 271.6941°
revolutions per day: 14.15889612
mean anomaly at epoch: 132.7498°
orbit number at epoch: 98059

The dashed part of the orbit path shows where the satellite is in the earth's shadow,  

DLR